TimePDT,TemperatureF,Dew PointF,Humidity,Sea Level PressureIn,VisibilityMPH,Wind Direction,Wind SpeedMPH,Gust SpeedMPH,PrecipitationIn,Events,Conditions,WindDirDegrees,DateUTC
12:51 AM,72.0,66.9,84,29.85,8.0,NNW,3.5,-,N/A,,Scattered Clouds,330,2013-09-08 07:51:00
1:51 AM,71.1,66.9,87,29.85,8.0,WNW,3.5,-,N/A,,Scattered Clouds,290,2013-09-08 08:51:00
2:51 AM,71.1,66.9,87,29.84,8.0,WNW,4.6,-,N/A,,Scattered Clouds,290,2013-09-08 09:51:00
3:51 AM,70.0,66.0,87,29.83,7.0,NNW,4.6,-,N/A,,Scattered Clouds,330,2013-09-08 10:51:00
4:51 AM,70.0,64.9,84,29.83,10.0,NNW,4.6,-,N/A,,Scattered Clouds,330,2013-09-08 11:51:00
5:51 AM,70.0,64.9,84,29.84,10.0,North,4.6,-,N/A,,Scattered Clouds,350,2013-09-08 12:51:00
6:51 AM,69.1,64.9,87,29.85,9.0,NW,3.5,-,N/A,,Scattered Clouds,320,2013-09-08 13:51:00
7:51 AM,70.0,64.0,81,29.86,10.0,NNW,5.8,-,N/A,,Scattered Clouds,340,2013-09-08 14:51:00
8:51 AM,73.0,64.9,76,29.86,10.0,NW,4.6,-,N/A,,Scattered Clouds,310,2013-09-08 15:51:00
9:51 AM,77.0,64.0,64,29.86,10.0,WNW,3.5,-,N/A,,Scattered Clouds,300,2013-09-08 16:51:00
10:43 AM,77.0,64.4,65,29.86,10.0,WNW,9.2,-,N/A,,Scattered Clouds,300,2013-09-08 17:43:00
10:51 AM,77.0,64.0,64,29.86,10.0,WNW,10.4,-,N/A,,Scattered Clouds,300,2013-09-08 17:51:00
11:51 AM,78.1,63.0,60,29.85,10.0,NW,10.4,-,N/A,,Scattered Clouds,310,2013-09-08 18:51:00
12:51 PM,78.1,64.9,64,29.84,10.0,WNW,12.7,-,N/A,,Scattered Clouds,300,2013-09-08 19:51:00
1:51 PM,79.0,64.0,60,29.82,10.0,NW,12.7,-,N/A,,Scattered Clouds,320,2013-09-08 20:51:00
2:51 PM,77.0,64.0,64,29.80,10.0,WNW,13.8,-,N/A,,Scattered Clouds,290,2013-09-08 21:51:00
3:51 PM,75.9,64.0,67,29.78,9.0,NW,11.5,-,N/A,,Scattered Clouds,310,2013-09-08 22:51:00
4:51 PM,73.9,64.0,71,29.78,10.0,NW,9.2,-,N/A,,Scattered Clouds,310,2013-09-08 23:51:00
5:51 PM,73.9,64.0,71,29.78,10.0,WNW,8.1,-,N/A,,Scattered Clouds,300,2013-09-09 00:51:00
6:51 PM,72.0,63.0,73,29.78,10.0,WNW,8.1,-,N/A,,Scattered Clouds,300,2013-09-09 01:51:00
7:51 PM,71.1,64.0,78,29.79,10.0,NW,5.8,-,N/A,,Scattered Clouds,310,2013-09-09 02:51:00
8:51 PM,70.0,64.0,81,29.80,9.0,WNW,6.9,-,N/A,,Scattered Clouds,300,2013-09-09 03:51:00
9:51 PM,70.0,64.0,81,29.81,9.0,North,4.6,-,N/A,,Scattered Clouds,350,2013-09-09 04:51:00
10:51 PM,70.0,64.0,81,29.82,10.0,NNW,5.8,-,N/A,,Scattered Clouds,340,2013-09-09 05:51:00
11:51 PM,69.1,64.0,84,29.81,10.0,NW,4.6,-,N/A,,Scattered Clouds,310,2013-09-09 06:51:00